map of SVG home
Great Circle Mapper logo
SVG - Airport
Location
City:  Stavanger, Norway
Name:Sola
ICAO / IATA:ENZV / SVG

Details
Type:Airport (Aerodrome, Airfield)
Use:Public/Civil, International (customs port of entry)
Latitude:5852'36"N (58.876778)
Longitude:538'16"E (5.637856)
Datum:WGS 1984
Elevation:29 ft (9 m)
Variation:0.70E (WMM2015 magnetic declination)
0.17 annual change
Runways:2
Longest:8385 × 197 ft (2556 × 60 m), paved

Time
Time Zone:UTC+1 (DST+2)
Local Time:

Weather
METAR:ENZV 301120Z 18012KT 9999 FEW017TCU FEW022 19/13 Q1018 NOSIG
TAF:ENZV 300800Z 3009/3109 18008KT 9999 FEW015TCU SCT030 PROB40
TEMPO 3009/3015 SHRA BKN014 SCT020CB

Related Locations
Nearby:
Farthest:CHT: 11385 mi / 18322 km
Waitangi [Tuuta], Chatham Islands, NZ

Find:

   beyond  
but within

Other Information
Maps:
NOTAMs:
Links:
Sources:

  
flag of Norway   

Airport Diagram

Airport diagram for SVG

Airport diagram (OBSOLETE) from NGA

Sectional Chart

Flight Planning
at skyvector.com

Satellite Image

Google Maps Satellite view

 

Copyright © 2004-2015 Karl L. Swartz. All rights reserved.
The Great Circle Mapper name and logo are trademarks of the Great Circle Mapper.
All other trademarks mentioned herein belong to their respective owners.
Please see credits for attibutions and further copyright information.

  Follow gcmap on Facebook Follow gcmap on Twitter Follow gcmap on Google+

hCard Microformat

Geo Microformat